COSMOS 2013

Satellite information

Favourite Embed

Satellite Type and Status

PAYLOADIN ORBIT

Key statistics

Satellite COSMOS 2013 at a glance.

Uptime

13371

Days in orbit

Revolutions

≈ 12.5

Per day

Orbit

LEO

Low Earth Orbit

Inclination

74.0

Latest

Satellite identification and parameters

Extended collection of information and parameters for COSMOS 2013.

Object identification

Identified? True

Debris? False

Object name: COSMOS 2013

International designator: 1989-025F

Object number (NORAD): 19907

Object ID (CCSDS): 19907

Country: COMMONWEALTH OF INDEPENDENT STATES (CIS)

Current information (Y/N): Y

RCS size: MEDIUM

Orbital parameters

Period: 115.369 minutes

Inclination: 74.0089 deg

SMA: 7850.281 km

Apoapsis: 1479.894 km

Periapsis: 1464.399 km

RAAN: 309.5559 deg

Eccentricy: 0.0009869

Argument of periapsis: 350.3702 deg

Mean anomaly: 183.0534 deg

Mean motion: 12.4817341 rev/day

Mean motion (dot): 0.0000001 rev/day2

B* drag term: 0.00017767 1/REarth

Two-line elements (TLE)

Creation date: Oct. 31, 2025, 11:06 p.m.

Reference frame: TEME

Reference center: EARTH

Epoch: Oct. 31, 2025, 6:43 p.m. UTC

TLE line 0: 0 COSMOS 2013

TLE line 1: 1 19907U 89025F 25304.78051985 .00000010 00000-0 17767-3 0 9999

TLE line 2: 2 19907 74.0089 309.5559 0009869 350.3702 183.0534 12.48173410667941

Live tracking on map

Real-time ground track for satellite COSMOS 2013.

In-orbit conjunctions

There are no conjunctions computed for COSMOS 2013, at the moment. Check back to stay up to date, as we update our databases every day.

Go to all conjunctions

Associated space launch

Military communications satellites

COSMOS 2013 was lifted into orbit during the mission ‘Kosmos-3M | Strela-1M 337-344’, on board a Kosmos-3M space rocket.

The launch took place on March 24, 1989, 1:38 p.m. from 132/2.

For more information about the launch, click the button.

Launch to space Kosmos-3M | Strela-1M 337-344
Kosmos-3M | Strela-1M 337-344

Agency: N/A

Status: Launch Successful

Launch date: March 24, 1989, 1:38 p.m. UTC

Rocket: Kosmos-3M

Launch pad: 132/2

Location: Plesetsk Cosmodrome, Russian Federation

...

Latest news about this satellite

There are no fresh news available about this satellite. Check back as we update our databases every day.


Newsletter sign-up

Weekly statistics, charts and insights to help you stay on top of the space industry.